Zurück zum Katalog

DELTA 1 DEB

AktivSSO
NORAD 13535·DEBRIS·🇺🇸 United States

Gestartet Jul 29, 1976 von Vandenberg Space Force Base

Loading…

Nächste Überflüge (nächste 24 Stunden)

TLE

AktuellSource: Space-Track

Epoche: Sep 14, 2026, 09:35 UTC

1 13535U 76077EH  26257.39964329 -.00000033  00000-0  76218-4 0  9996
2 13535 101.7785 226.3511 0023647  99.6412  55.1425 12.39108150159840

Verfolge DELTA 1 DEB in Echtzeit mit AllMySat

Download on the App Store